Year,Month,Day,Hour,Minute,Value (Times are PST for insolation in W/m^2)
2013,12,29,00,00,0.00
2013,12,29,00,01,0.00
2013,12,29,00,02,0.00
2013,12,29,00,03,0.00
2013,12,29,00,04,0.00
2013,12,29,00,05,0.00
2013,12,29,00,06,0.00
2013,12,29,00,07,0.00
2013,12,29,00,08,0.00
2013,12,29,00,09,0.00
2013,12,29,00,10,0.00
2013,12,29,00,11,0.00
2013,12,29,00,12,0.00
2013,12,29,00,13,0.00
2013,12,29,00,14,0.00
2013,12,29,00,15,0.00
2013,12,29,00,16,0.00
2013,12,29,00,17,0.00
2013,12,29,00,18,0.00
2013,12,29,00,19,0.00
2013,12,29,00,20,0.00
2013,12,29,00,21,0.00
2013,12,29,00,22,0.00
2013,12,29,00,23,0.00
2013,12,29,00,24,0.00
2013,12,29,00,25,0.00
2013,12,29,00,26,0.00
2013,12,29,00,27,0.00
2013,12,29,00,28,0.00
2013,12,29,00,29,0.00
2013,12,29,00,30,0.00
2013,12,29,00,31,0.00
2013,12,29,00,32,0.00
2013,12,29,00,33,0.00
2013,12,29,00,34,0.00
2013,12,29,00,35,0.00
2013,12,29,00,36,0.00
2013,12,29,00,37,0.00
2013,12,29,00,38,0.00
2013,12,29,00,39,0.00
2013,12,29,00,40,0.00
2013,12,29,00,41,0.00
2013,12,29,00,42,0.00
2013,12,29,00,43,0.00
2013,12,29,00,44,0.00
2013,12,29,00,45,0.00
2013,12,29,00,46,0.00
2013,12,29,00,47,0.00
2013,12,29,00,48,0.00
2013,12,29,00,49,0.00
2013,12,29,00,50,0.00
2013,12,29,00,51,0.00
2013,12,29,00,52,0.00
2013,12,29,00,53,0.00
2013,12,29,00,54,0.00
2013,12,29,00,55,0.00
2013,12,29,00,56,0.00
2013,12,29,00,57,0.00
2013,12,29,00,58,0.00
2013,12,29,00,59,0.00
2013,12,29,01,00,0.00
2013,12,29,01,01,0.00
2013,12,29,01,02,0.00
2013,12,29,01,03,0.00
2013,12,29,01,04,0.00
2013,12,29,01,05,0.00
2013,12,29,01,06,0.00
2013,12,29,01,07,0.00
2013,12,29,01,08,0.00
2013,12,29,01,09,0.00
2013,12,29,01,10,0.00
2013,12,29,01,11,0.00
2013,12,29,01,12,0.00
2013,12,29,01,13,0.00
2013,12,29,01,14,0.00
2013,12,29,01,15,0.00
2013,12,29,01,16,0.00
2013,12,29,01,17,0.00
2013,12,29,01,18,0.00
2013,12,29,01,19,0.00
2013,12,29,01,20,0.00
2013,12,29,01,21,0.00
2013,12,29,01,22,0.00
2013,12,29,01,23,0.00
2013,12,29,01,24,0.00
2013,12,29,01,25,0.00
2013,12,29,01,26,0.00
2013,12,29,01,27,0.00
2013,12,29,01,28,0.00
2013,12,29,01,29,0.00
2013,12,29,01,30,0.00
2013,12,29,01,31,0.00
2013,12,29,01,32,0.00
2013,12,29,01,33,0.00
2013,12,29,01,34,0.00
2013,12,29,01,35,0.00
2013,12,29,01,36,0.00
2013,12,29,01,37,0.00
2013,12,29,01,38,0.00
2013,12,29,01,39,0.00
2013,12,29,01,40,0.00
2013,12,29,01,41,0.00
2013,12,29,01,42,0.00
2013,12,29,01,43,0.00
2013,12,29,01,44,0.00
2013,12,29,01,45,0.00
2013,12,29,01,46,0.00
2013,12,29,01,47,0.00
2013,12,29,01,48,0.00
2013,12,29,01,49,0.00
2013,12,29,01,50,0.00
2013,12,29,01,51,0.00
2013,12,29,01,52,0.00
2013,12,29,01,53,0.00
2013,12,29,01,54,0.00
2013,12,29,01,55,0.00
2013,12,29,01,56,0.00
2013,12,29,01,57,0.00
2013,12,29,01,58,0.00
2013,12,29,01,59,0.00
2013,12,29,02,00,0.00
2013,12,29,02,01,0.00
2013,12,29,02,02,0.00
2013,12,29,02,03,0.00
2013,12,29,02,04,0.00
2013,12,29,02,05,0.00
2013,12,29,02,06,0.00
2013,12,29,02,07,0.00
2013,12,29,02,08,0.00
2013,12,29,02,09,0.00
2013,12,29,02,10,0.00
2013,12,29,02,11,0.00
2013,12,29,02,12,0.00
2013,12,29,02,13,0.00
2013,12,29,02,14,0.00
2013,12,29,02,15,0.00
2013,12,29,02,16,0.00
2013,12,29,02,17,0.00
2013,12,29,02,18,0.00
2013,12,29,02,19,0.00
2013,12,29,02,20,0.00
2013,12,29,02,21,0.00
2013,12,29,02,22,0.00
2013,12,29,02,23,0.00
2013,12,29,02,24,0.00
2013,12,29,02,25,0.00
2013,12,29,02,26,0.00
2013,12,29,02,27,0.00
2013,12,29,02,28,0.00
2013,12,29,02,29,0.00
2013,12,29,02,30,0.00
2013,12,29,02,31,0.00
2013,12,29,02,32,0.00
2013,12,29,02,33,0.00
2013,12,29,02,34,0.00
2013,12,29,02,35,0.00
2013,12,29,02,36,0.00
2013,12,29,02,37,0.00
2013,12,29,02,38,0.00
2013,12,29,02,39,0.00
2013,12,29,02,40,0.00
2013,12,29,02,41,0.00
2013,12,29,02,42,0.00
2013,12,29,02,43,0.00
2013,12,29,02,44,0.00
2013,12,29,02,45,0.00
2013,12,29,02,46,0.00
2013,12,29,02,47,0.00
2013,12,29,02,48,0.00
2013,12,29,02,49,0.00
2013,12,29,02,50,0.00
2013,12,29,02,51,0.00
2013,12,29,02,52,0.00
2013,12,29,02,53,0.00
2013,12,29,02,54,0.00
2013,12,29,02,55,0.00
2013,12,29,02,56,0.00
2013,12,29,02,57,0.00
2013,12,29,02,58,0.00
2013,12,29,02,59,0.00
2013,12,29,03,00,0.00
2013,12,29,03,01,0.00
2013,12,29,03,02,0.00
2013,12,29,03,03,0.00
2013,12,29,03,04,0.00
2013,12,29,03,05,0.00
2013,12,29,03,06,0.00
2013,12,29,03,07,0.00
2013,12,29,03,08,0.00
2013,12,29,03,09,0.00
2013,12,29,03,10,0.00
2013,12,29,03,11,0.00
2013,12,29,03,12,0.00
2013,12,29,03,13,0.00
2013,12,29,03,14,0.00
2013,12,29,03,15,0.00
2013,12,29,03,16,0.00
2013,12,29,03,17,0.00
2013,12,29,03,18,0.00
2013,12,29,03,19,0.00
2013,12,29,03,20,0.00
2013,12,29,03,21,0.00
2013,12,29,03,22,0.00
2013,12,29,03,23,0.00
2013,12,29,03,24,0.00
2013,12,29,03,25,0.00
2013,12,29,03,26,0.00
2013,12,29,03,27,0.00
2013,12,29,03,28,0.00
2013,12,29,03,29,0.00
2013,12,29,03,30,0.00
2013,12,29,03,31,0.00
2013,12,29,03,32,0.00
2013,12,29,03,33,0.00
2013,12,29,03,34,0.00
2013,12,29,03,35,0.00
2013,12,29,03,36,0.00
2013,12,29,03,37,0.00
2013,12,29,03,38,0.00
2013,12,29,03,39,0.00
2013,12,29,03,40,0.00
2013,12,29,03,41,0.00
2013,12,29,03,42,0.00
2013,12,29,03,43,0.00
2013,12,29,03,44,0.00
2013,12,29,03,45,0.00
2013,12,29,03,46,0.00
2013,12,29,03,47,0.00
2013,12,29,03,48,0.00
2013,12,29,03,49,0.00
2013,12,29,03,50,0.00
2013,12,29,03,51,0.00
2013,12,29,03,52,0.00
2013,12,29,03,53,0.00
2013,12,29,03,54,0.00
2013,12,29,03,55,0.00
2013,12,29,03,56,0.00
2013,12,29,03,57,0.00
2013,12,29,03,58,0.00
2013,12,29,03,59,0.00
2013,12,29,04,00,0.00
2013,12,29,04,01,0.00
2013,12,29,04,02,0.00
2013,12,29,04,03,0.00
2013,12,29,04,04,0.00
2013,12,29,04,05,0.00
2013,12,29,04,06,0.00
2013,12,29,04,07,0.00
2013,12,29,04,08,0.00
2013,12,29,04,09,0.00
2013,12,29,04,10,0.00
2013,12,29,04,11,0.00
2013,12,29,04,12,0.00
2013,12,29,04,13,0.00
2013,12,29,04,14,0.00
2013,12,29,04,15,0.00
2013,12,29,04,16,0.00
2013,12,29,04,17,0.00
2013,12,29,04,18,0.00
2013,12,29,04,19,0.00
2013,12,29,04,20,0.00
2013,12,29,04,21,0.00
2013,12,29,04,22,0.00
2013,12,29,04,23,0.00
2013,12,29,04,24,0.00
2013,12,29,04,25,0.00
2013,12,29,04,26,0.00
2013,12,29,04,27,0.00
2013,12,29,04,28,0.00
2013,12,29,04,29,0.00
2013,12,29,04,30,0.00
2013,12,29,04,31,0.00
2013,12,29,04,32,0.00
2013,12,29,04,33,0.00
2013,12,29,04,34,0.00
2013,12,29,04,35,0.00
2013,12,29,04,36,0.00
2013,12,29,04,37,0.00
2013,12,29,04,38,0.00
2013,12,29,04,39,0.00
2013,12,29,04,40,0.00
2013,12,29,04,41,0.00
2013,12,29,04,42,0.00
2013,12,29,04,43,0.00
2013,12,29,04,44,0.00
2013,12,29,04,45,0.00
2013,12,29,04,46,0.00
2013,12,29,04,47,0.00
2013,12,29,04,48,0.00
2013,12,29,04,49,0.00
2013,12,29,04,50,0.00
2013,12,29,04,51,0.00
2013,12,29,04,52,0.00
2013,12,29,04,53,0.00
2013,12,29,04,54,0.00
2013,12,29,04,55,0.00
2013,12,29,04,56,0.00
2013,12,29,04,57,0.00
2013,12,29,04,58,0.00
2013,12,29,04,59,0.00
2013,12,29,05,00,0.00
2013,12,29,05,01,0.00
2013,12,29,05,02,0.00
2013,12,29,05,03,0.00
2013,12,29,05,04,0.00
2013,12,29,05,05,0.00
2013,12,29,05,06,0.00
2013,12,29,05,07,0.00
2013,12,29,05,08,0.00
2013,12,29,05,09,0.00
2013,12,29,05,10,0.00
2013,12,29,05,11,0.00
2013,12,29,05,12,0.00
2013,12,29,05,13,0.00
2013,12,29,05,14,0.00
2013,12,29,05,15,0.00
2013,12,29,05,16,0.00
2013,12,29,05,17,0.00
2013,12,29,05,18,0.00
2013,12,29,05,19,0.00
2013,12,29,05,20,0.00
2013,12,29,05,21,0.00
2013,12,29,05,22,0.00
2013,12,29,05,23,0.00
2013,12,29,05,24,0.00
2013,12,29,05,25,0.00
2013,12,29,05,26,0.00
2013,12,29,05,27,0.00
2013,12,29,05,28,0.00
2013,12,29,05,29,0.00
2013,12,29,05,30,0.00
2013,12,29,05,31,0.00
2013,12,29,05,32,0.00
2013,12,29,05,33,0.00
2013,12,29,05,34,0.00
2013,12,29,05,35,0.00
2013,12,29,05,36,0.00
2013,12,29,05,37,0.00
2013,12,29,05,38,0.00
2013,12,29,05,39,0.00
2013,12,29,05,40,0.00
2013,12,29,05,41,0.00
2013,12,29,05,42,0.00
2013,12,29,05,43,0.00
2013,12,29,05,44,0.00
2013,12,29,05,45,0.00
2013,12,29,05,46,0.00
2013,12,29,05,47,0.00
2013,12,29,05,48,0.00
2013,12,29,05,49,0.00
2013,12,29,05,50,0.00
2013,12,29,05,51,0.00
2013,12,29,05,52,0.00
2013,12,29,05,53,0.00
2013,12,29,05,54,0.00
2013,12,29,05,55,0.00
2013,12,29,05,56,0.00
2013,12,29,05,57,0.00
2013,12,29,05,58,0.00
2013,12,29,05,59,0.00
2013,12,29,06,00,0.00
2013,12,29,06,01,0.00
2013,12,29,06,02,0.00
2013,12,29,06,03,0.00
2013,12,29,06,04,0.00
2013,12,29,06,05,0.00
2013,12,29,06,06,0.00
2013,12,29,06,07,0.00
2013,12,29,06,08,0.00
2013,12,29,06,09,0.00
2013,12,29,06,10,0.00
2013,12,29,06,11,0.00
2013,12,29,06,12,0.00
2013,12,29,06,13,0.00
2013,12,29,06,14,0.00
2013,12,29,06,15,0.00
2013,12,29,06,16,0.00
2013,12,29,06,17,0.00
2013,12,29,06,18,0.00
2013,12,29,06,19,0.00
2013,12,29,06,20,0.00
2013,12,29,06,21,0.00
2013,12,29,06,22,0.00
2013,12,29,06,23,0.00
2013,12,29,06,24,0.00
2013,12,29,06,25,0.00
2013,12,29,06,26,0.00
2013,12,29,06,27,0.00
2013,12,29,06,28,0.00
2013,12,29,06,29,0.00
2013,12,29,06,30,0.00
2013,12,29,06,31,0.00
2013,12,29,06,32,0.00
2013,12,29,06,33,0.00
2013,12,29,06,34,0.00
2013,12,29,06,35,0.00
2013,12,29,06,36,0.00
2013,12,29,06,37,0.00
2013,12,29,06,38,0.00
2013,12,29,06,39,0.00
2013,12,29,06,40,0.00
2013,12,29,06,41,0.00
2013,12,29,06,42,0.00
2013,12,29,06,43,0.00
2013,12,29,06,44,0.00
2013,12,29,06,45,0.00
2013,12,29,06,46,0.00
2013,12,29,06,47,0.00
2013,12,29,06,48,0.00
2013,12,29,06,49,0.00
2013,12,29,06,50,0.00
2013,12,29,06,51,0.00
2013,12,29,06,52,0.00
2013,12,29,06,53,0.00
2013,12,29,06,54,0.00
2013,12,29,06,55,0.00
2013,12,29,06,56,0.00
2013,12,29,06,57,0.00
2013,12,29,06,58,0.00
2013,12,29,06,59,0.00
2013,12,29,07,00,0.00
2013,12,29,07,01,0.00
2013,12,29,07,02,0.00
2013,12,29,07,03,0.00
2013,12,29,07,04,0.00
2013,12,29,07,05,0.00
2013,12,29,07,06,0.00
2013,12,29,07,07,0.00
2013,12,29,07,08,0.00
2013,12,29,07,09,0.00
2013,12,29,07,10,0.00
2013,12,29,07,11,0.00
2013,12,29,07,12,0.00
2013,12,29,07,13,0.00
2013,12,29,07,14,0.00
2013,12,29,07,15,0.00
2013,12,29,07,16,0.00
2013,12,29,07,17,0.00
2013,12,29,07,18,0.00
2013,12,29,07,19,0.00
2013,12,29,07,20,0.00
2013,12,29,07,21,0.00
2013,12,29,07,22,0.00
2013,12,29,07,23,0.00
2013,12,29,07,24,0.00
2013,12,29,07,25,0.00
2013,12,29,07,26,0.00
2013,12,29,07,27,0.00
2013,12,29,07,28,0.00
2013,12,29,07,29,0.00
2013,12,29,07,30,0.00
2013,12,29,07,31,0.00
2013,12,29,07,32,0.00
2013,12,29,07,33,0.00
2013,12,29,07,34,0.00
2013,12,29,07,35,0.00
2013,12,29,07,36,0.00
2013,12,29,07,37,0.00
2013,12,29,07,38,0.00
2013,12,29,07,39,0.00
2013,12,29,07,40,0.00
2013,12,29,07,41,0.00
2013,12,29,07,42,0.00
2013,12,29,07,43,0.00
2013,12,29,07,44,0.00
2013,12,29,07,45,0.00
2013,12,29,07,46,0.00
2013,12,29,07,47,0.00
2013,12,29,07,48,0.00
2013,12,29,07,49,0.00
2013,12,29,07,50,0.00
2013,12,29,07,51,0.00
2013,12,29,07,52,0.00
2013,12,29,07,53,0.00
2013,12,29,07,54,0.00
2013,12,29,07,55,0.00
2013,12,29,07,56,0.00
2013,12,29,07,57,0.00
2013,12,29,07,58,0.00
2013,12,29,07,59,0.00
2013,12,29,08,00,0.00
2013,12,29,08,01,0.00
2013,12,29,08,02,0.00
2013,12,29,08,03,0.00
2013,12,29,08,04,0.00
2013,12,29,08,05,0.00
2013,12,29,08,06,0.00
2013,12,29,08,07,0.00
2013,12,29,08,08,0.00
2013,12,29,08,09,0.00
2013,12,29,08,10,0.00
2013,12,29,08,11,0.00
2013,12,29,08,12,0.00
2013,12,29,08,13,0.00
2013,12,29,08,14,0.00
2013,12,29,08,15,0.00
2013,12,29,08,16,0.00
2013,12,29,08,17,0.00
2013,12,29,08,18,0.00
2013,12,29,08,19,0.00
2013,12,29,08,20,0.00
2013,12,29,08,21,0.00
2013,12,29,08,22,0.00
2013,12,29,08,23,1.00
2013,12,29,08,24,5.00
2013,12,29,08,25,5.00
2013,12,29,08,26,5.40
2013,12,29,08,27,7.00
2013,12,29,08,28,7.00
2013,12,29,08,29,7.40
2013,12,29,08,30,9.00
2013,12,29,08,31,9.40
2013,12,29,08,32,11.00
2013,12,29,08,33,11.20
2013,12,29,08,34,12.00
2013,12,29,08,35,12.40
2013,12,29,08,36,14.00
2013,12,29,08,37,14.40
2013,12,29,08,38,16.00
2013,12,29,08,39,16.40
2013,12,29,08,40,18.20
2013,12,29,08,41,19.40
2013,12,29,08,42,21.00
2013,12,29,08,43,20.60
2013,12,29,08,44,19.00
2013,12,29,08,45,19.00
2013,12,29,08,46,19.40
2013,12,29,08,47,21.00
2013,12,29,08,48,21.40
2013,12,29,08,49,23.00
2013,12,29,08,50,23.40
2013,12,29,08,51,25.20
2013,12,29,08,52,26.00
2013,12,29,08,53,26.40
2013,12,29,08,54,28.40
2013,12,29,08,55,30.40
2013,12,29,08,56,32.20
2013,12,29,08,57,33.00
2013,12,29,08,58,33.40
2013,12,29,08,59,35.00
2013,12,29,09,00,35.00
2013,12,29,09,01,35.40
2013,12,29,09,02,37.40
2013,12,29,09,03,39.20
2013,12,29,09,04,40.40
2013,12,29,09,05,42.00
2013,12,29,09,06,42.40
2013,12,29,09,07,44.00
2013,12,29,09,08,44.40
2013,12,29,09,09,46.20
2013,12,29,09,10,47.40
2013,12,29,09,11,49.00
2013,12,29,09,12,49.00
2013,12,29,09,13,49.40
2013,12,29,09,14,51.00
2013,12,29,09,15,51.00
2013,12,29,09,16,51.00
2013,12,29,09,17,51.00
2013,12,29,09,18,51.00
2013,12,29,09,19,50.60
2013,12,29,09,20,49.40
2013,12,29,09,21,51.40
2013,12,29,09,22,53.20
2013,12,29,09,23,54.00
2013,12,29,09,24,54.00
2013,12,29,09,25,54.40
2013,12,29,09,26,56.80
2013,12,29,09,27,60.40
2013,12,29,09,28,61.60
2013,12,29,09,29,60.00
2013,12,29,09,30,60.00
2013,12,29,09,31,60.00
2013,12,29,09,32,60.00
2013,12,29,09,33,59.20
2013,12,29,09,34,55.00
2013,12,29,09,35,50.60
2013,12,29,09,36,49.00
2013,12,29,09,37,49.00
2013,12,29,09,38,49.00
2013,12,29,09,39,48.60
2013,12,29,09,40,47.00
2013,12,29,09,41,47.40
2013,12,29,09,42,49.40
2013,12,29,09,43,51.00
2013,12,29,09,44,51.00
2013,12,29,09,45,51.40
2013,12,29,09,46,53.00
2013,12,29,09,47,53.20
2013,12,29,09,48,54.40
2013,12,29,09,49,56.00
2013,12,29,09,50,56.40
2013,12,29,09,51,58.80
2013,12,29,09,52,62.20
2013,12,29,09,53,64.30
2013,12,29,09,54,69.20
2013,12,29,09,55,70.00
2013,12,29,09,56,70.00
2013,12,29,09,57,70.00
2013,12,29,09,58,70.00
2013,12,29,09,59,70.80
2013,12,29,10,00,74.40
2013,12,29,10,01,76.60
2013,12,29,10,02,80.80
2013,12,29,10,03,90.40
2013,12,29,10,04,102.60
2013,12,29,10,05,115.40
2013,12,29,10,06,127.40
2013,12,29,10,07,138.00
2013,12,29,10,08,143.20
2013,12,29,10,09,147.60
2013,12,29,10,10,146.40
2013,12,29,10,11,150.00
2013,12,29,10,12,160.60
2013,12,29,10,13,179.40
2013,12,29,10,14,219.60
2013,12,29,10,15,234.80
2013,12,29,10,16,191.80
2013,12,29,10,17,195.40
2013,12,29,10,18,181.00
2013,12,29,10,19,173.60
2013,12,29,10,20,145.40
2013,12,29,10,21,146.40
2013,12,29,10,22,126.50
2013,12,29,10,23,122.20
2013,12,29,10,24,129.00
2013,12,29,10,25,136.60
2013,12,29,10,26,133.40
2013,12,29,10,27,128.60
2013,12,29,10,28,137.80
2013,12,29,10,29,149.80
2013,12,29,10,30,153.00
2013,12,29,10,31,152.60
2013,12,29,10,32,149.20
2013,12,29,10,33,140.40
2013,12,29,10,34,134.20
2013,12,29,10,35,135.80
2013,12,29,10,36,140.40
2013,12,29,10,37,148.00
2013,12,29,10,38,156.00
2013,12,29,10,39,155.00
2013,12,29,10,40,151.00
2013,12,29,10,41,151.00
2013,12,29,10,42,153.20
2013,12,29,10,43,160.20
2013,12,29,10,44,152.60
2013,12,29,10,45,151.80
2013,12,29,10,46,156.40
2013,12,29,10,47,164.40
2013,12,29,10,48,175.80
2013,12,29,10,49,186.40
2013,12,29,10,50,202.60
2013,12,29,10,51,219.60
2013,12,29,10,52,241.80
2013,12,29,10,53,231.60
2013,12,29,10,54,250.60
2013,12,29,10,55,221.40
2013,12,29,10,56,223.80
2013,12,29,10,57,226.20
2013,12,29,10,58,225.20
2013,12,29,10,59,241.00
2013,12,29,11,00,263.80
2013,12,29,11,01,260.40
2013,12,29,11,02,330.00
2013,12,29,11,03,311.80
2013,12,29,11,04,236.20
2013,12,29,11,05,233.00
2013,12,29,11,06,263.40
2013,12,29,11,07,274.80
2013,12,29,11,08,346.00
2013,12,29,11,09,343.20
2013,12,29,11,10,334.80
2013,12,29,11,11,352.00
2013,12,29,11,12,363.00
2013,12,29,11,13,329.40
2013,12,29,11,14,393.80
2013,12,29,11,15,371.40
2013,12,29,11,16,422.40
2013,12,29,11,17,403.20
2013,12,29,11,18,431.80
2013,12,29,11,19,429.60
2013,12,29,11,20,427.40
2013,12,29,11,21,446.00
2013,12,29,11,22,465.20
2013,12,29,11,23,458.80
2013,12,29,11,24,440.20
2013,12,29,11,25,427.80
2013,12,29,11,26,473.40
2013,12,29,11,27,471.80
2013,12,29,11,28,435.40
2013,12,29,11,29,467.40
2013,12,29,11,30,461.00
2013,12,29,11,31,435.60
2013,12,29,11,32,339.20
2013,12,29,11,33,361.80
2013,12,29,11,34,369.00
2013,12,29,11,35,402.80
2013,12,29,11,36,533.00
2013,12,29,11,37,493.00
2013,12,29,11,38,396.40
2013,12,29,11,39,333.00
2013,12,29,11,40,353.60
2013,12,29,11,41,407.00
2013,12,29,11,42,483.00
2013,12,29,11,43,441.60
2013,12,29,11,44,276.40
2013,12,29,11,45,277.60
2013,12,29,11,46,276.00
2013,12,29,11,47,278.80
2013,12,29,11,48,289.40
2013,12,29,11,49,280.20
2013,12,29,11,50,248.80
2013,12,29,11,51,232.40
2013,12,29,11,52,235.40
2013,12,29,11,53,240.60
2013,12,29,11,54,238.60
2013,12,29,11,55,237.00
2013,12,29,11,56,237.40
2013,12,29,11,57,238.40
2013,12,29,11,58,237.40
2013,12,29,11,59,241.80
2013,12,29,12,00,235.40
2013,12,29,12,01,226.40
2013,12,29,12,02,214.20
2013,12,29,12,03,207.40
2013,12,29,12,04,209.40
2013,12,29,12,05,211.00
2013,12,29,12,06,212.00
2013,12,29,12,07,216.40
2013,12,29,12,08,217.60
2013,12,29,12,09,216.00
2013,12,29,12,10,215.60
2013,12,29,12,11,211.60
2013,12,29,12,12,199.60
2013,12,29,12,13,189.60
2013,12,29,12,14,188.00
2013,12,29,12,15,188.00
2013,12,29,12,16,187.00
2013,12,29,12,17,181.20
2013,12,29,12,18,171.60
2013,12,29,12,19,161.60
2013,12,29,12,20,160.00
2013,12,29,12,21,160.40
2013,12,29,12,22,162.60
2013,12,29,12,23,166.40
2013,12,29,12,24,173.80
2013,12,29,12,25,181.80
2013,12,29,12,26,185.00
2013,12,29,12,27,186.00
2013,12,29,12,28,191.00
2013,12,29,12,29,194.60
2013,12,29,12,30,188.80
2013,12,29,12,31,167.40
2013,12,29,12,32,151.80
2013,12,29,12,33,165.60
2013,12,29,12,34,175.20
2013,12,29,12,35,170.60
2013,12,29,12,36,165.00
2013,12,29,12,37,163.60
2013,12,29,12,38,158.80
2013,12,29,12,39,165.40
2013,12,29,12,40,179.40
2013,12,29,12,41,180.60
2013,12,29,12,42,178.00
2013,12,29,12,43,173.40
2013,12,29,12,44,166.40
2013,12,29,12,45,147.60
2013,12,29,12,46,144.60
2013,12,29,12,47,140.40
2013,12,29,12,48,149.80
2013,12,29,12,49,167.20
2013,12,29,12,50,172.80
2013,12,29,12,51,153.40
2013,12,29,12,52,125.80
2013,12,29,12,53,122.40
2013,12,29,12,54,129.80
2013,12,29,12,55,142.60
2013,12,29,12,56,169.20
2013,12,29,12,57,183.20
2013,12,29,12,58,170.00
2013,12,29,12,59,159.80
2013,12,29,13,00,149.00
2013,12,29,13,01,141.00
2013,12,29,13,02,140.60
2013,12,29,13,03,138.00
2013,12,29,13,04,132.20
2013,12,29,13,05,124.00
2013,12,29,13,06,119.20
2013,12,29,13,07,116.00
2013,12,29,13,08,117.00
2013,12,29,13,09,121.00
2013,12,29,13,10,119.00
2013,12,29,13,11,110.60
2013,12,29,13,12,109.40
2013,12,29,13,13,111.00
2013,12,29,13,14,111.60
2013,12,29,13,15,115.20
2013,12,29,13,16,119.60
2013,12,29,13,17,117.20
2013,12,29,13,18,111.60
2013,12,29,13,19,101.20
2013,12,29,13,20,98.00
2013,12,29,13,21,99.40
2013,12,29,13,22,106.60
2013,12,29,13,23,113.20
2013,12,29,13,24,114.80
2013,12,29,13,25,118.00
2013,12,29,13,26,117.00
2013,12,29,13,27,113.20
2013,12,29,13,28,114.00
2013,12,29,13,29,114.00
2013,12,29,13,30,118.20
2013,12,29,13,31,132.60
2013,12,29,13,32,120.20
2013,12,29,13,33,109.00
2013,12,29,13,34,108.20
2013,12,29,13,35,107.20
2013,12,29,13,36,120.20
2013,12,29,13,37,139.20
2013,12,29,13,38,143.80
2013,12,29,13,39,125.20
2013,12,29,13,40,122.20
2013,12,29,13,41,141.40
2013,12,29,13,42,150.40
2013,12,29,13,43,145.80
2013,12,29,13,44,131.80
2013,12,29,13,45,105.60
2013,12,29,13,46,85.40
2013,12,29,13,47,93.20
2013,12,29,13,48,103.00
2013,12,29,13,49,108.20
2013,12,29,13,50,114.00
2013,12,29,13,51,119.50
2013,12,29,13,52,122.20
2013,12,29,13,53,107.80
2013,12,29,13,54,95.40
2013,12,29,13,55,98.60
2013,12,29,13,56,105.40
2013,12,29,13,57,105.20
2013,12,29,13,58,95.20
2013,12,29,13,59,83.40
2013,12,29,14,00,81.00
2013,12,29,14,01,81.00
2013,12,29,14,02,80.20
2013,12,29,14,03,77.40
2013,12,29,14,04,78.60
2013,12,29,14,05,76.40
2013,12,29,14,06,73.60
2013,12,29,14,07,73.40
2013,12,29,14,08,81.20
2013,12,29,14,09,88.60
2013,12,29,14,10,81.20
2013,12,29,14,11,73.20
2013,12,29,14,12,70.40
2013,12,29,14,13,72.80
2013,12,29,14,14,76.00
2013,12,29,14,15,76.00
2013,12,29,14,16,76.00
2013,12,29,14,17,76.00
2013,12,29,14,18,76.20
2013,12,29,14,19,77.80
2013,12,29,14,20,81.60
2013,12,29,14,21,85.20
2013,12,29,14,22,91.70
2013,12,29,14,23,99.80
2013,12,29,14,24,109.80
2013,12,29,14,25,124.20
2013,12,29,14,26,139.30
2013,12,29,14,27,148.60
2013,12,29,14,28,150.00
2013,12,29,14,29,145.00
2013,12,29,14,30,139.80
2013,12,29,14,31,134.00
2013,12,29,14,32,129.00
2013,12,29,14,33,123.60
2013,12,29,14,34,118.00
2013,12,29,14,35,119.00
2013,12,29,14,36,123.40
2013,12,29,14,37,124.00
2013,12,29,14,38,117.40
2013,12,29,14,39,105.00
2013,12,29,14,40,96.20
2013,12,29,14,41,92.60
2013,12,29,14,42,90.40
2013,12,29,14,43,87.20
2013,12,29,14,44,84.40
2013,12,29,14,45,86.40
2013,12,29,14,46,88.00
2013,12,29,14,47,87.20
2013,12,29,14,48,82.90
2013,12,29,14,49,78.40
2013,12,29,14,50,76.20
2013,12,29,14,51,77.80
2013,12,29,14,52,81.40
2013,12,29,14,53,84.00
2013,12,29,14,54,89.00
2013,12,29,14,55,93.00
2013,12,29,14,56,92.00
2013,12,29,14,57,87.00
2013,12,29,14,58,81.60
2013,12,29,14,59,75.20
2013,12,29,15,00,71.60
2013,12,29,15,01,70.40
2013,12,29,15,02,72.80
2013,12,29,15,03,76.60
2013,12,29,15,04,79.40
2013,12,29,15,05,80.60
2013,12,29,15,06,79.00
2013,12,29,15,07,79.00
2013,12,29,15,08,78.60
2013,12,29,15,09,76.40
2013,12,29,15,10,73.20
2013,12,29,15,11,69.80
2013,12,29,15,12,68.60
2013,12,29,15,13,67.00
2013,12,29,15,14,67.00
2013,12,29,15,15,66.00
2013,12,29,15,16,60.80
2013,12,29,15,17,55.00
2013,12,29,15,18,50.20
2013,12,29,15,19,46.40
2013,12,29,15,20,43.20
2013,12,29,15,21,39.80
2013,12,29,15,22,38.60
2013,12,29,15,23,36.60
2013,12,29,15,24,35.00
2013,12,29,15,25,35.00
2013,12,29,15,26,35.00
2013,12,29,15,27,35.00
2013,12,29,15,28,34.60
2013,12,29,15,29,33.00
2013,12,29,15,30,33.00
2013,12,29,15,31,32.80
2013,12,29,15,32,31.60
2013,12,29,15,33,30.00
2013,12,29,15,34,29.60
2013,12,29,15,35,28.00
2013,12,29,15,36,28.00
2013,12,29,15,37,28.00
2013,12,29,15,38,28.00
2013,12,29,15,39,28.00
2013,12,29,15,40,28.00
2013,12,29,15,41,27.60
2013,12,29,15,42,26.00
2013,12,29,15,43,26.00
2013,12,29,15,44,25.80
2013,12,29,15,45,25.00
2013,12,29,15,46,25.00
2013,12,29,15,47,24.60
2013,12,29,15,48,23.00
2013,12,29,15,49,22.60
2013,12,29,15,50,21.00
2013,12,29,15,51,20.60
2013,12,29,15,52,19.00
2013,12,29,15,53,18.80
2013,12,29,15,54,18.00
2013,12,29,15,55,18.00
2013,12,29,15,56,17.60
2013,12,29,15,57,16.00
2013,12,29,15,58,16.00
2013,12,29,15,59,15.60
2013,12,29,16,00,14.00
2013,12,29,16,01,13.60
2013,12,29,16,02,11.80
2013,12,29,16,03,11.00
2013,12,29,16,04,10.60
2013,12,29,16,05,9.00
2013,12,29,16,06,9.00
2013,12,29,16,07,8.60
2013,12,29,16,08,7.00
2013,12,29,16,09,7.00
2013,12,29,16,10,7.00
2013,12,29,16,11,7.00
2013,12,29,16,12,7.00
2013,12,29,16,13,6.60
2013,12,29,16,14,5.00
2013,12,29,16,15,5.00
2013,12,29,16,16,5.00
2013,12,29,16,17,5.00
2013,12,29,16,18,4.00
2013,12,29,16,19,0.00
2013,12,29,16,20,0.00
2013,12,29,16,21,0.00
2013,12,29,16,22,0.00
2013,12,29,16,23,0.00
2013,12,29,16,24,0.00
2013,12,29,16,25,0.00
2013,12,29,16,26,0.00
2013,12,29,16,27,0.00
2013,12,29,16,28,0.00
2013,12,29,16,29,0.00
2013,12,29,16,30,0.00
2013,12,29,16,31,0.00
2013,12,29,16,32,0.00
2013,12,29,16,33,0.00
2013,12,29,16,34,0.00
2013,12,29,16,35,0.00
2013,12,29,16,36,0.00
2013,12,29,16,37,0.00
2013,12,29,16,38,0.00
2013,12,29,16,39,0.00
2013,12,29,16,40,0.00
2013,12,29,16,41,0.00
2013,12,29,16,42,0.00
2013,12,29,16,43,0.00
2013,12,29,16,44,0.00
2013,12,29,16,45,0.00
2013,12,29,16,46,0.00
2013,12,29,16,47,0.00
2013,12,29,16,48,0.00
2013,12,29,16,49,0.00
2013,12,29,16,50,0.00
2013,12,29,16,51,0.00
2013,12,29,16,52,0.00
2013,12,29,16,53,0.00
2013,12,29,16,54,0.00
2013,12,29,16,55,0.00
2013,12,29,16,56,0.00
2013,12,29,16,57,0.00
2013,12,29,16,58,0.00
2013,12,29,16,59,0.00
2013,12,29,17,00,0.00
2013,12,29,17,01,0.00
2013,12,29,17,02,0.00
2013,12,29,17,03,0.00
2013,12,29,17,04,0.00
2013,12,29,17,05,0.00
2013,12,29,17,06,0.00
2013,12,29,17,07,0.00
2013,12,29,17,08,0.00
2013,12,29,17,09,0.00
2013,12,29,17,10,0.00
2013,12,29,17,11,0.00
2013,12,29,17,12,0.00
2013,12,29,17,13,0.00
2013,12,29,17,14,0.00
2013,12,29,17,15,0.00
2013,12,29,17,16,0.00
2013,12,29,17,17,0.00
2013,12,29,17,18,0.00
2013,12,29,17,19,0.00
2013,12,29,17,20,0.00
2013,12,29,17,21,0.00
2013,12,29,17,22,0.00
2013,12,29,17,23,0.00
2013,12,29,17,24,0.00
2013,12,29,17,25,0.00
2013,12,29,17,26,0.00
2013,12,29,17,27,0.00
2013,12,29,17,28,0.00
2013,12,29,17,29,0.00
2013,12,29,17,30,0.00
2013,12,29,17,31,0.00
2013,12,29,17,32,0.00
2013,12,29,17,33,0.00
2013,12,29,17,34,0.00